• MPC Preparation (Info)

  • MPEC 2013-N16 : 2013 MP11

    The following Minor Planet Electronic Circular may be linked-to from your own Web pages, but must not otherwise be redistributed electronically.

    A form allowing access to any MPEC is at the bottom of this page.


    Read MPEC 2013-N15 Read MPEC 2013-N17


    M.P.E.C. 2013-N16                                Issued 2013 July 5, 18:07 UT
    
         The Minor Planet Electronic Circulars contain information on unusual
             minor planets and routine data on comets.  They are published
       on behalf of Commission 20 of the International Astronomical Union by the
              Minor Planet Center, Smithsonian Astrophysical Observatory,
                              Cambridge, MA 02138, U.S.A.
    
                 Prepared using the Tamkin Foundation Computer Network
    
                                  MPC@CFA.HARVARD.EDU
                URL https://www.minorplanetcenter.net/    ISSN 1523-6714
    
                                       2013 MP11
    
    Observations:
         K13M11P* C2013 06 30.48404 20 57 54.888-23 38 11.92         20.6 rLEN016F51
         K13M11P  C2013 06 30.49373 20 57 55.129-23 37 49.66         20.5 rLEN016F51
         K13M11P  C2013 06 30.50514 20 57 55.411-23 37 23.36         20.5 iLEN016F51
         K13M11P |C2013 07 03.29797 20 59 25.66 -21 48 31.2          20.7 VuEN016807
         K13M11P KC2013 07 03.29862020 59 25.68 -21 48 29.7          20.5 RqEN016W85
         K13M11P |C2013 07 03.30340 20 59 25.75 -21 48 18.6          20.8 VuEN016807
         K13M11P KC2013 07 03.30516920 59 25.76 -21 48 14.4          20.5 RqEN016W85
         K13M11P |C2013 07 03.30882 20 59 25.82 -21 48 06.1          20.7 VuEN016807
         K13M11P KC2013 07 03.31116820 59 25.86 -21 48 00.3          20.4 RqEN016W85
         K13M11P _C2013 07 03.51940120 59 31.686-21 40 21.46         20.2 RtEN016568
         K13M11P _C2013 07 03.52065720 59 31.702-21 40 18.49         20.2 RtEN016568
         K13M11P _C2013 07 03.52190720 59 31.718-21 40 15.73         19.9 RtEN016568
         K13M11P |C2013 07 04.29554 20 59 50.53 -21 09 50.0          20.8 VuEN016807
         K13M11P |C2013 07 04.29916 20 59 50.58 -21 09 41.6          20.8 VuEN016807
         K13M11P |C2013 07 04.30278 20 59 50.61 -21 09 33.1          20.5 VuEN016807
         K13M11P |C2013 07 04.30639 20 59 50.65 -21 09 24.7          20.8 VuEN016807
         K13M11P |C2013 07 04.31000 20 59 50.70 -21 09 16.2          20.7 VuEN016807
    
    Observer details:
    568 Mauna Kea.  Observers R. J. Wainscoat, M. Micheli, D. Woodworth.  Measurer
        M. Micheli.  3.6-m Canada-France-Hawaii Telescope + CCD.
    807 Cerro Tololo.  Observers T. Linder, R. Holmes.  0.41-m f/11
        Ritchey-Chretien + CCD.
    F51 Pan-STARRS 1, Haleakala.  Observers N. Primak, A. Schultz, S. Watters,
        T. Goggia, K. Chambers.  Measurer PS1 Science Consortium.  1.8-m
        Ritchey-Chretien + CCD.
    W85 Cerro Tololo-LCOGT A.  Observer T. Lister.  1.0-m f/8 Ritchey-Chretien
        + CCD.
    
    Orbital elements:
    2013 MP11                                                Earth MOID = 0.2403 AU
    Epoch 2013 Apr. 18.0 TT = JDT 2456400.5                 MPC
    M 341.41354              (2000.0)            P               Q
    n   0.30275963     Peri.  341.25641     +0.08938526     +0.98555056
    a   2.1965314      Node   293.66168     -0.89255720     +0.01515846
    e   0.4302482      Incl.    9.03756     -0.44198633     +0.16870183
    P   3.26           H   21.8           G   0.15           U   7
    Residuals in seconds of arc
    130630 F51  0.0   0.1+    130703 W85  0.1-  0.0     130704 807  0.2-  0.0
    130630 F51  0.0   0.0     130703 807  0.0   0.2-    130704 807  0.0   0.1-
    130630 F51  0.0   0.1-    130703 W85  0.1+  0.1+    130704 807  0.1-  0.0
    130703 807  0.0   0.0     130703 568  0.0   0.1+    130704 807  0.1-  0.0
    130703 W85  0.1+  0.0     130703 568  0.0   0.2+    130704 807  0.1+  0.1+
    130703 807  0.2+  0.1-    130703 568  0.0   0.0
    
    Ephemeris:
    2013 MP11                a,e,i = 2.20, 0.43, 9                   q = 1.2515
    Date    TT    R. A. (2000) Decl.     Delta      r     Elong.  Phase     V
    2013 06 05    20 17 15.4 -38 03 20   0.3220  1.2587   133.7    35.7    21.3
    ...
    2013 06 20    20 47 11.5 -30 12 55   0.2861  1.2516   141.0    30.7    20.9
    ...
    2013 06 28    20 56 05.9 -25 13 53   0.2760  1.2552   146.2    26.8    20.7
    ...
    2013 07 04    20 59 43.7 -21 21 24   0.2728  1.2613   150.5    23.4    20.6
    2013 07 05    21 00 05.9 -20 42 41   0.2727  1.2626   151.2    22.8    20.6
    2013 07 06    21 00 24.4 -20 04 06   0.2727  1.2640   152.0    22.2    20.6
    ...
    2013 07 12    21 01 04.8 -16 17 30   0.2751  1.2738   156.6    18.5    20.5
    ...
    2013 07 20    20 59 32.9 -11 39 47   0.2851  1.2910   162.6    13.6    20.4
    ...
    2013 08 04    20 53 25.8 -05 02 12   0.3258  1.3347   167.7     9.3    20.6
    
    A. U. Tomatic                (C) Copyright 2013 MPC           M.P.E.C. 2013-N16
    

    Read MPEC 2013-N15 Read MPEC 2013-N17


    MPEC number:

    Enter an MPEC number in one of the following forms:

    • 1997-B01 (the full form)
    • J97B01 (the packed version of the full form)
    • B01 (the abbreviated form)